Track COSMOS 2497 now! 10-day predictions COSMOS 2497 is classified as:
1 39762U 14028B 21061.49675190 .00000021 00000-0 83240-4 0 9997 2 39762 82.4470 240.2407 0020088 324.7618 35.2132 12.42883514307499